OBJECT D, 43761

Orbit data source: Space-Track

You're viewing an Uncataloged Satellite

Recently launched and/or uncataloged satellites may have evolving metadata. Metadata may include but not limited to: Owner, Maufacturer, Bus, Motor, and Mission.

OBJECT D, 43761 is a satellite in SSO that was launched on Mon, 03 Dec 2018 UTC via an FALCON 9 launch vehicle from the Air Force Western Test Range (AFWTR). Unknown objects in Earth's orbit typically refer to objects detected orbiting the Earth but have not yet been identified or cataloged. These objects could be anything from previously untracked satellites, spent rocket stages, debris from satellite collisions, or even natural meteoroids temporarily captured by Earth's gravity.

Loading next visibility...
Identifier
43761, 2018-099D
Orbit
SSO
Country
Flag of TBDTBD
Related business
None
Manufacturer
Unknown
Mission
Non-operational Amateur Technology
Bus & Motor
Unknown
Mass
Unknown
Launch date (UTC)
2018-12-03 (7 years ago)
Launch vehicle
FALCON 9
Launch site
Air Force Western Test Range (AFWTR)
Object type
Unknown
Shape & HBR
Box, 0.1 m
Radar Cross Section
0.015 m², Small (<0.1 m²)

Expand to show TLE details & history
Last TLE update: 8 hours ago

TLE from 8 hours ago
0 OBJECT D
1 43761U 18099D   26125.04880225  .00002338  00000-0  16260-3 0  9997
2 43761  97.4215 167.4550 0012950 128.0406 232.1993 15.06375409405612
Epoch: 2026-05-05T01:10Z
TLE epoch observation values (Epoch: 2026-05-05T01:10:16.514Z)
Latitude
0.00003°
Longitude
-73.04305°
Altitude
555.864 km
Speed
7.581 km/s
True Right ascension
11h 09m 49s
True Declination
0° 00' 00"
Sunlit
Object was in full shadow at epoch
Visualization orbit readout
Latitude
Unknown
Longitude
Unknown
Altitude
Unknown
Speed
Unknown
Apparent Right ascension
Unknown
Apparent Declination
Unknown
Sunlit
N/A
Visualization observer readout
Local Sidereal Time
17:21:06
Azimuth
Unknown
Elevation
Unknown
Doppler factor
Unknown
Orbital elements
Apogee altitude
553.236 km
Perigee altitude
535.307 km
Semi-major axis
6,922.409 km
Eccentricity
0.0013
Inclination
97.4215°
RAAN
167.455°
Arg. of periapsis
128.0406°
True anomaly
232.08216°
Mean anomaly
232.1993°
Eccentric anomaly
232.14072°
Mean motion
3.7684 °/min
Orbital period
95.53 mins
BSTAR
0.0001626
Loading maneuver chart data...
Computing Atmospheric mass density...
Loading historical data...
Loading historical data...
Loading historical data...
Loading historical data...
Loading historical data...
Loading historical data...
Loading historical data...

Documentation

Showing up to 5 results
|